Clemson, SC

4:55 PM EDT on April 23, 2017 (GMT -0400)
Oconee County Regional

Weather History for KCEU - March, 2012

Change the Weather History Date:

Saturday, March 3, 2012

  Actual Average Record
Temperature  
Mean Temperature 60 °F -  
Max Temperature 66 °F 62 °F 81 °F (1976)
Min Temperature 54 °F 37 °F 4 °F (1980)
Degree Days  
Heating Degree Days 4    
Growing Degree Days 10 (Base 50)    
Moisture  
Dew Point 49 °F    
Average Humidity 72    
Maximum Humidity 93    
Minimum Humidity 16    
Precipitation  
Precipitation 1.36 in - - ()
Sea Level Pressure  
Sea Level Pressure 29.70 in    
Wind  
Wind Speed 6 mph (West)    
Max Wind Speed 21 mph    
Max Gust Speed 37 mph    
Visibility 6 miles    
Events Rain , Thunderstorm    
Averages and records for this station are not official NWS values.
T = Trace of Precipitation, MM = Missing Value Source: NWS Daily Summary

Daily Weather History Graph

Daily Weather History Graph

Search for Another Location

Airport or City:

Trip Planner

Search our weather history database for the weather conditions in past years. The results will help you decide how hot, cold, wet, or windy it might be!

Date:

Astronomy

Mar. 03, 2012 Rise Set
Actual Time 6:57 AM EST 6:29 PM EST
Civil Twilight 6:32 AM EST 6:54 PM EST
Nautical Twilight 6:03 AM EST 7:24 PM EST
Astronomical Twilight 5:33 AM EST 7:53 PM EST
Moon 1:48 PM EST (3/3) 3:23 AM EST (3/3)
Length of Visible Light 12h 22m
Length of Day
11h 32m
Waxing Gibbous, 75% of the Moon is Illuminated
Mar 3
Waxing Gibbous
Mar 8
Full
Mar 14
Last Quarter
Mar 22
New
Mar 30
First Quarter

Hourly Weather History & Observations

Time (EST) Temp. Dew Point Humidity Pressure Visibility Wind Dir Wind Speed Gust Speed Precip Events Conditions
12:08 AM 66.2 °F 60.8 °F 83% 29.68 in 10.0 mi Variable 3.5 mph - 0.00 in Rain , Thunderstorm Light Rain
12:25 AM 64.4 °F 60.8 °F 88% 29.68 in 10.0 mi NNW 5.8 mph - 0.01 in Rain , Thunderstorm Light Rain
12:54 AM 64.0 °F 61.0 °F 90% 29.64 in 4.0 mi Calm Calm - 0.04 in Rain Light Rain
1:03 AM 64.4 °F 60.8 °F 88% 29.67 in 4.0 mi WSW 3.5 mph - 0.02 in Rain , Thunderstorm Rain
1:15 AM 62.6 °F 59.0 °F 88% 29.71 in 1.8 mi West 20.7 mph 36.8 mph 0.17 in Rain , Thunderstorm Heavy Thunderstorms and Rain
1:17 AM 62.6 °F 57.2 °F 82% 29.69 in 1.2 mi West 20.7 mph 36.8 mph 0.20 in Rain , Thunderstorm Heavy Thunderstorms and Rain
1:26 AM 62.6 °F 57.2 °F 82% 29.69 in 2.0 mi WSW 12.7 mph 27.6 mph 0.27 in Rain , Thunderstorm Heavy Thunderstorms and Rain
1:34 AM 62.6 °F 57.2 °F 82% 29.69 in 5.0 mi SW 8.1 mph - 0.28 in Rain , Thunderstorm Light Thunderstorms and Rain
1:54 AM 61.0 °F 57.9 °F 90% 29.68 in 2.0 mi SW 6.9 mph - 0.39 in Rain Heavy Rain
2:01 AM 60.8 °F 57.2 °F 88% 29.69 in 1.2 mi SSW 5.8 mph - 0.07 in Rain Heavy Rain
2:13 AM 60.8 °F 57.2 °F 88% 29.69 in 2.5 mi Variable 3.5 mph - 0.14 in Rain Heavy Rain
2:25 AM 60.8 °F 57.2 °F 88% 29.68 in 4.0 mi Calm Calm - 0.18 in Rain Rain
2:37 AM 60.8 °F 57.2 °F 88% 29.69 in 1.8 mi SW 3.5 mph - 0.27 in Rain Heavy Rain
2:48 AM 60.8 °F 57.2 °F 88% 29.68 in 3.0 mi SW 4.6 mph - 0.31 in Rain Rain
2:49 AM 61.0 °F 57.9 °F 90% 29.67 in 3.0 mi SW 5.8 mph - 0.31 in Rain Rain
2:52 AM 60.8 °F 57.2 °F 88% 29.67 in 1.8 mi Calm Calm - 0.06 in Rain Heavy Rain
3:06 AM 60.8 °F 57.2 °F 88% 29.66 in 2.0 mi South 4.6 mph - 0.13 in Rain Heavy Rain
3:20 AM 60.8 °F 57.2 °F 88% 29.67 in 3.0 mi SW 3.5 mph - 0.18 in Rain Heavy Rain
3:28 AM 60.8 °F 57.2 °F 88% 29.65 in 2.5 mi Calm Calm - 0.21 in Rain Heavy Rain
3:39 AM 60.8 °F 57.2 °F 88% 29.65 in 3.0 mi West 3.5 mph - 0.26 in Rain Heavy Rain
3:49 AM 60.8 °F 57.2 °F 88% 29.64 in 2.5 mi Calm Calm - 0.30 in Rain Heavy Rain
3:54 AM 60.1 °F 57.9 °F 93% 29.62 in 3.0 mi SSE 3.5 mph - 0.32 in Rain Rain
4:03 AM 60.8 °F 57.2 °F 88% 29.66 in 2.5 mi SSW 6.9 mph - 0.05 in Rain , Thunderstorm Heavy Thunderstorms and Rain
4:16 AM 62.6 °F 57.2 °F 82% 29.67 in 4.0 mi WSW 9.2 mph - 0.11 in Rain Heavy Rain
4:23 AM 60.8 °F 57.2 °F 88% 29.66 in 3.0 mi South 6.9 mph - 0.14 in Rain , Thunderstorm Rain
4:38 AM 60.8 °F 57.2 °F 88% 29.67 in 6.0 mi SSW 6.9 mph - 0.18 in Rain Rain
4:54 AM 62.1 °F 57.9 °F 86% 29.65 in 4.0 mi Variable 5.8 mph - 0.22 in Rain Rain
5:34 AM 62.6 °F 57.2 °F 82% 29.67 in 9.0 mi SSW 9.2 mph - 0.03 in Rain Light Rain
5:54 AM 62.1 °F 57.9 °F 86% 29.67 in 5.0 mi West 17.3 mph 26.5 mph 0.06 in Rain Rain
6:05 AM 60.8 °F 55.4 °F 82% 29.68 in 8.0 mi West 11.5 mph - 0.01 in Rain Light Rain
6:54 AM 59.0 °F 55.0 °F 87% 29.70 in 10.0 mi West 10.4 mph - 0.01 in Rain Light Rain
7:54 AM 57.0 °F 53.1 °F 87% 29.73 in 10.0 mi WSW 9.2 mph - 0.00 in   Mostly Cloudy
8:54 AM 55.9 °F 52.0 °F 87% 29.74 in 10.0 mi WSW 9.2 mph - N/A   Partly Cloudy
9:54 AM 55.0 °F 50.0 °F 83% 29.73 in 10.0 mi WSW 8.1 mph - N/A   Clear
10:54 AM 55.9 °F 50.0 °F 80% 29.74 in 10.0 mi West 11.5 mph - N/A   Clear
11:54 AM 57.9 °F 48.9 °F 72% 29.74 in 10.0 mi Variable 4.6 mph - N/A   Clear
12:54 PM 63.0 °F 46.0 °F 54% 29.70 in 10.0 mi NNW 6.9 mph - 0.01 in   Clear
1:54 PM 66.0 °F 39.9 °F 38% 29.71 in 10.0 mi Variable 5.8 mph - N/A   Scattered Clouds
2:54 PM 64.9 °F 34.0 °F 32% 29.70 in 10.0 mi West 5.8 mph - N/A   Scattered Clouds
3:54 PM 64.9 °F 24.1 °F 21% 29.72 in 10.0 mi WNW 9.2 mph - N/A   Mostly Cloudy
4:54 PM 63.0 °F 19.0 °F 18% 29.71 in 10.0 mi NW 6.9 mph - N/A   Overcast
5:54 PM 61.0 °F 14.0 °F 16% 29.72 in 10.0 mi NW 6.9 mph - N/A   Overcast
6:54 PM 59.0 °F 17.1 °F 20% 29.74 in 10.0 mi NNW 5.8 mph - N/A   Overcast
7:54 PM 57.9 °F 30.0 °F 35% 29.77 in 10.0 mi North 3.5 mph - N/A   Overcast
8:54 PM 55.9 °F 23.0 °F 28% 29.78 in 10.0 mi NW 5.8 mph - N/A   Overcast
9:54 PM 55.0 °F 21.9 °F 28% 29.79 in 10.0 mi NW 5.8 mph - N/A   Overcast
10:54 PM 55.0 °F 19.9 °F 25% 29.80 in 10.0 mi NW 6.9 mph - N/A   Overcast
11:54 PM 54.0 °F 25.0 °F 33% 29.77 in 10.0 mi WNW 12.7 mph 20.7 mph 0.00 in   Overcast